Content
SEND FEEDBACK

Daily
Averages
Monthly
Summary
United States of America

ACHANG BAY, GUAM


Home > North America > United States > Guam
Elevation: 30 feet     Latitude: 13 16N     Longitude: 144 45E

WEATHER
 
SELECT A DAY
Number of Records: 351,895;   Date Range: 1/1/95 - 10/24/14
 
SHARE

PRINT THIS DATA

[ ← Previous Day ]
WEATHER ALMANAC - OCTOBER 7, 2013
[ Next Day → ]
[ °C ]   °F
Weather ElementAverageHighLow
Temperature79 °F84.9 °F (11:58 am)73.4 °F (1:23 am)
Dewpoint76.5 °F78.8 °F (6:13 am)70.9 °F (4:58 pm)
Humidity92.4 %100 % (6:07 pm)79 % (10:58 am)
Barometer29.70 in29.77 in (7:53 am)29.54 in (2:58 pm)
Wind Speed6.8 mph16.1 mph (2:11 am)
Wind Gust18.4 mph (6:29 am)
Weather ElementAverage
Visibility8.5 mi
Wind DirectionESE (96.4 °)

Weather ElementTotal
Precipitation0.17 in
Cooling Degree Days14.2 (Base 65)
Growing Degree Days29.2 (Base 50)
Averaged from 85 records on October 7, 2013
WEATHER CONDITIONS BREAKOUT
WIND DIRECTION BREAKOUT
WEATHER BY HOUR - OCTOBER 7, 2013
[ °C ]   °F
Local TimeTemperatureDewpointHumidityBarometerVisibilityWind DirectionWind SpeedGust SpeedPrecipitationEventsConditions
1:08 AM75.2 °F73.4 °F94 %29.73 in10.0 miEast (90°)10.4 mphMostly Cloudy
1:18 AM75.2 °F73.4 °F94 %29.73 in10.0 miEast (100°)10.4 mphScattered Clouds
1:23 AM73.4 °F71.6 °F94 %29.73 in10.0 miEast (80°)12.7 mphMostly Cloudy
1:28 AM75.2 °F71.6 °F89 %29.72 in10.0 miEast (80°)11.5 mphMostly Cloudy
1:43 AM75.2 °F71.6 °F89 %29.72 in10.0 miENE (70°)10.4 mphMostly Cloudy
1:53 AM80.6 °F77.0 °F89 %29.72 in10.0 miEast (80°)12.7 mphMostly Cloudy
1:58 AM80.8 °F76.6 °F87 %29.60 in10.0 miEast (80°)10.4 mphMostly Cloudy
2:03 AM80.6 °F77.0 °F89 %29.72 in10.0 miEast (90°)11.5 mphMostly Cloudy
2:11 AM80.6 °F77.0 °F89 %29.72 in8.0 miENE (60°)16.1 mphRainLight Rain
2:21 AM78.8 °F77.0 °F94 %29.72 in7.0 miEast (90°)10.4 mphRainLight Rain
2:26 AM78.8 °F77.0 °F94 %29.72 in10.0 miEast (80°)9.2 mphMostly Cloudy
2:31 AM78.8 °F77.0 °F94 %29.72 in10.0 miENE (70°)11.5 mphScattered Clouds
2:36 AM78.8 °F77.0 °F94 %29.71 in10.0 miEast (80°)10.4 mphMostly Cloudy
2:41 AM78.8 °F77.0 °F94 %29.72 in10.0 miENE (60°)10.4 mphMostly Cloudy
2:50 AM78.8 °F77.0 °F94 %29.71 in10.0 miENE (70°)9.2 mphLight Drizzle
2:55 AM78.8 °F77.0 °F94 %29.72 in10.0 miENE (70°)8.1 mphLight Drizzle
2:57 AM78.8 °F77.0 °F94 %29.72 in10.0 miENE (70°)6.9 mphScattered Clouds
2:58 AM78.8 °F77.0 °F94 %29.60 in10.0 miENE (70°)6.9 mph0.01 inScattered Clouds
3:58 AM78.8 °F76.1 °F91 %29.59 in10.0 miENE (70°)5.8 mph0.00 inPartly Cloudy
4:47 AM78.8 °F77.0 °F94 %29.71 in10.0 miENE (60°)9.2 mphRainLight Rain
4:57 AM78.8 °F77.0 °F94 %29.71 in10.0 miENE (70°)4.6 mphPartly Cloudy
4:58 AM78.8 °F77.0 °F94 %29.59 in10.0 miENE (70°)5.8 mph0.01 inPartly Cloudy
5:23 AM78.8 °F77.0 °F94 %29.72 in10.0 miEast (80°)5.8 mphMostly Cloudy
5:28 AM78.8 °F77.0 °F94 %29.72 in10.0 miEast (80°)6.9 mphScattered Clouds
5:58 AM79.5 °F77.4 °F93 %29.61 in10.0 miEast (90°)5.8 mph0.00 inScattered Clouds
6:08 AM78.8 °F77.0 °F94 %29.73 in10.0 miEast (90°)6.9 mphMostly Cloudy
6:13 AM80.6 °F78.8 °F94 %29.73 in10.0 miEast (90°)8.1 mphScattered Clouds
6:23 AM80.6 °F77.0 °F89 %29.73 in10.0 miEast (90°)8.1 mphMostly Cloudy
6:29 AM78.8 °F77.0 °F94 %29.74 in8.0 miENE (60°)10.4 mph18.4 mphRainLight Rain
6:39 AM77.0 °F75.2 °F94 %29.74 in2.0 miEast (80°)13.8 mphRainHeavy Rain
6:44 AM77.0 °F75.2 °F94 %29.75 in2.0 miEast (80°)10.4 mphRainRain
6:49 AM77.0 °F73.4 °F89 %29.75 in5.0 miEast (90°)4.6 mphRainLight Rain
6:54 AM77.0 °F75.2 °F94 %29.75 in10.0 miEast (80°)3.5 mphRainLight Rain
6:58 AM77.5 °F74.8 °F91 %29.63 in10.0 miEast (80°)4.6 mph0.07 inLight Drizzle
7:00 AM77.0 °F75.2 °F94 %29.75 in10.0 miEast (80°)6.9 mphPartly Cloudy
7:02 AM77.0 °F75.2 °F94 %29.75 in10.0 miEast (80°)11.5 mphRainLight Rain
7:33 AM78.8 °F75.2 °F89 %29.76 in10.0 miESE (110°)6.9 mphClear
7:53 AM78.8 °F77.0 °F94 %29.77 in9.0 miSSE (150°)4.6 mphMostly Cloudy
7:58 AM77.9 °F77.0 °F97 %29.65 in9.0 miSSE (150°)3.5 mph0.01 inMostly Cloudy
8:03 AM78.8 °F77.0 °F94 %29.77 in10.0 miSSE (150°)2.3 mphMostly Cloudy
8:16 AM78.8 °F77.0 °F94 %29.77 in9.0 miNNE (20°)1.2 mphRainLight Rain
8:26 AM80.6 °F77.0 °F89 %29.77 in10.0 miEast (100°)6.9 mphScattered Clouds
8:28 AM80.6 °F77.0 °F89 %29.77 in9.0 miESE (110°)5.8 mphLight Drizzle
8:37 AM80.6 °F77.0 °F89 %29.77 in10.0 miESE (110°)8.1 mphPartly Cloudy
8:58 AM81.7 °F77.9 °F88 %29.65 in10.0 miESE (110°)5.8 mph0.00 inClear
9:43 AM82.4 °F78.8 °F89 %29.76 in10.0 miSE (130°)9.2 mphMostly Cloudy
9:53 AM82.4 °F78.8 °F89 %29.76 in10.0 miSE (130°)8.1 mphMostly Cloudy
9:58 AM82.8 °F78.4 °F87 %29.64 in10.0 miESE (120°)6.9 mphMostly Cloudy
10:08 AM82.4 °F78.8 °F89 %29.75 in10.0 miESE (110°)5.8 mphScattered Clouds
10:53 AM84.2 °F78.8 °F84 %29.75 in10.0 miEast (100°)6.9 mphMostly Cloudy
10:58 AM84.2 °F77.0 °F79 %29.62 in10.0 miEast (90°)9.2 mphScattered Clouds
11:58 AM84.9 °F78.8 °F82 %29.60 in10.0 miESE (110°)8.1 mphScattered Clouds
12:23 PM84.2 °F78.8 °F84 %29.72 in10.0 miESE (120°)11.5 mphMostly Cloudy
12:28 PM84.2 °F78.8 °F84 %29.71 in10.0 miEast (100°)9.2 mphScattered Clouds
12:58 PM84.9 °F78.1 °F80 %29.58 in10.0 miESE (110°)8.1 mphScattered Clouds
1:58 PM82.9 °F76.1 °F80 %29.55 in10.0 miESE (110°)6.9 mphPartly Cloudy
2:58 PM82.9 °F77.0 °F82 %29.54 in10.0 miSE (140°)6.9 mphPartly Cloudy
3:58 PM83.1 °F76.8 °F81 %29.55 in10.0 miEast (100°)3.5 mphClear
4:58 PM76.6 °F70.9 °F82 %29.57 in10.0 miSE (130°)4.6 mphScattered Clouds
5:35 PM80.6 °F75.2 °F84 %29.71 in10.0 miENE (60°)2.3 mphThunderstormThunderstorm
5:50 PM80.6 °F77.0 °F89 %29.72 in10.0 miNNE (20°)11.5 mphMostly Cloudy
5:57 PM78.8 °F77.0 °F94 %29.73 in10.0 miNorth (10°)11.5 mphRain-ThunderstormLight Rain
5:58 PM78.8 °F77.0 °F94 %29.61 in9.0 miNorth (10°)10.4 mphRain-ThunderstormLight Rain
6:02 PM78.8 °F77.0 °F94 %29.73 in5.0 miNorth (350°)11.5 mphRain-ThunderstormLight Thunderstorms and Rain
6:07 PM77.0 °F77.0 °F100 %29.73 in3.0 miNNW (340°)8.1 mphRain-ThunderstormLight Thunderstorms and Rain
6:17 PM77.0 °F77.0 °F100 %29.72 in4.0 miNNW (340°)6.9 mphRain-ThunderstormLight Thunderstorms and Rain
6:27 PM77.0 °F77.0 °F100 %29.72 in5.0 miNorth (10°)1.2 mphRain-ThunderstormThunderstorms and Rain
6:29 PM77.0 °F77.0 °F100 %29.73 in6.0 miNNE (30°)4.6 mphRain-ThunderstormRain
6:34 PM77.0 °F77.0 °F100 %29.73 in6.0 miNNE (20°)9.2 mphRain-ThunderstormRain
6:39 PM77.0 °F77.0 °F100 %29.73 in7.0 miNNE (30°)9.2 mphRainRain
6:44 PM77.0 °F77.0 °F100 %29.73 in7.0 miNorth (360°)5.8 mphRainLight Rain
6:54 PM77.0 °F77.0 °F100 %29.73 in5.0 miNNW (330°)2.3 mphRainLight Rain
6:58 PM76.8 °F76.6 °F99 %29.61 in2.5 miCalm0.06 inRainLight Rain
7:03 PM77.0 °F77.0 °F100 %29.73 in2.0 miCalmRainLight Rain
7:08 PM77.0 °F75.2 °F94 %29.72 in4.0 miCalmRainLight Rain
7:28 PM77.0 °F77.0 °F100 %29.73 in7.0 miNW (310°)5.8 mphLight Drizzle
7:29 PM77.0 °F77.0 °F100 %29.73 in6.0 miWNW (300°)4.6 mphMostly Cloudy
7:34 PM77.0 °F77.0 °F100 %29.73 in2.5 miWSW (250°)3.5 mphOvercast
7:44 PM77.0 °F77.0 °F100 %29.73 in4.0 miCalmMostly Cloudy
7:49 PM77.0 °F77.0 °F100 %29.74 in5.0 miCalmMostly Cloudy
7:58 PM76.6 °F76.6 °F100 %29.62 in8.0 miCalm0.01 inScattered Clouds
8:58 PM77.9 °F76.1 °F94 %29.64 in10.0 miCalmClear
9:58 PM77.4 °F75.2 °F93 %29.65 in10.0 miCalmClear
10:58 PM75.9 °F75.0 °F97 %29.64 in10.0 miCalmClear
11:58 PM78.8 °F77.0 °F94 %29.62 in10.0 miCalmPartly Cloudy
Hourly data recorded from PGUA, located miles away from Achang Bay, Guam







STORIES FROM OUR PARTNERS